Starlink 1978

operational
NORAD ID: 47576 Int'l Des: 2021-009 Owner: SPXS Country: US Constellation: starlink
LEOCIRCULAR

关于 Starlink 1978

正在加载描述...

实时位置

正在加载3D地球...

即将过境

高度历史

Altitude vs Time

uPlot chart will show altitude changes over time

两行轨道根数

1 47576U 21009AE 25350.33337963 .00289412 00000-0 25901-2 0 9998
2 47576 53.0464 322.7418 0003028 30.1007 319.2297 15.66918290 5942
Epoch: Dec 16, 2025 • Age: 19 hours

当前状态

高度 375.0 km
速度 7.68 km/s
星下点 -23.07°S, 21.82°E
发射日期 Feb 4, 2021
运行时间 4.8 years
类型 internet

技术详情

分类 Payload
质量 260.00 kg
干质量 248.00 kg
总质量 260.00 kg
长度 0.20 m
直径 2.80 m
跨度 9.00 m
形状 Box + pan
制造商 SPXS
平台类型 Starlink
阶段状态 In Orbit
所有者/国家 SPXS/US

大型星座

Loading constellations...